{"data":{"norad_id":51754,"intl_designator":"2022-016AS","name":"STARLINK-3457","alt_names":[],"object_type":"PAYLOAD","status":"ACTIVE","operator":null,"country":"US","launch_date":"2022-02-21","launch_site_code":"AFETR","launch_vehicle":null,"mission":null,"orbit_class":"UNKNOWN","rcs_meters":null,"size_class":null,"mass_kg":null,"dimensions":null,"purposes":["comms"],"wikipedia_slug":null,"has_3d_model":false,"image_url":null,"decayed_at":null,"tle_current":{"epoch":"2026-09-20T04:39:26.796960Z","epoch_age_seconds":78325,"freshness":"FRESH","line1":"1 51754U 22016AS  26263.19406015 -.00000369  00000+0  22600-6 0  9992","line2":"2 51754  53.1588 140.8052 0001192  81.8607 278.2531 15.34385298253272","mean_motion":15.34385298,"eccentricity":0.0001192,"inclination_deg":53.1588,"raan_deg":140.8052,"arg_perigee_deg":81.8607,"mean_anomaly_deg":278.2531,"bstar":2.26e-7,"rev_number":25327,"period_min":93.848657301199,"perigee_km":461.93150463291,"apogee_km":463.56237136373,"semimajor_km":6840.8839379983,"source":"CELESTRAK","updated_at":"2026-09-20T09:00:39.934428Z"}}}